| time (UTC) | temp F | wind direction | speed MPH | gust MPH | rain 1hr in | rain 24hr in | rain mn in | humidity % | barometer mb |
| 20260906203043 | 96 | 57 | 0.0 | 3.0 | 0.00 | 0.00 | 0.00 | 43 | 1008.8 |
| 20260906202956 | 97 | 60 | 1.0 | 3.0 | 0.00 | 0.00 | 0.00 | 43 | 1010.9 |
| 20260906202446 | 97 | 65 | 1.0 | 3.0 | 0.00 | 0.00 | 0.00 | 42 | 1011.0 |
| 20260906201929 | 97 | 51 | 1.0 | 4.0 | 0.00 | 0.00 | 0.00 | 41 | 1011.1 |
| 20260906201531 | 97 | 60 | 1.0 | 5.0 | 0.00 | 0.00 | 0.00 | 41 | 1009.1 |
| 20260906201441 | 97 | 63 | 1.0 | 5.0 | 0.00 | 0.00 | 0.00 | 41 | 1011.2 |
| 20260906201007 | 98 | 61 | 1.0 | 5.0 | 0.00 | 0.00 | 0.00 | 41 | 1011.3 |
| 20260906200429 | 98 | 30 | 0.0 | 1.0 | 0.00 | 0.00 | 0.00 | 42 | 1011.3 |
| 20260906200017 | 97 | 30 | 0.0 | 1.0 | 0.00 | 0.00 | 0.00 | 41 | 1009.2 |
| 20260906195940 | 98 | 30 | 0.0 | 2.0 | 0.00 | 0.00 | 0.00 | 41 | 1011.3 |
| 20260906195448 | 98 | 30 | 0.0 | 2.0 | 0.00 | 0.00 | 0.00 | 42 | 1011.5 |
| 20260906194525 | 99 | 5 | 1.0 | 4.0 | 0.00 | 0.00 | 0.00 | 41 | 1009.4 |
| 20260906194443 | 99 | 60 | 2.0 | 4.0 | 0.00 | 0.00 | 0.00 | 41 | 1011.4 |
| 20260906193924 | 100 | 61 | 0.0 | 4.0 | 0.00 | 0.00 | 0.00 | 38 | 1011.4 |
| 20260906193435 | 101 | 61 | 2.0 | 4.0 | 0.00 | 0.00 | 0.00 | 38 | 1011.5 |
| 20260906193034 | 101 | 73 | 1.0 | 4.0 | 0.00 | 0.00 | 0.00 | 37 | 1009.5 |
| 20260906192944 | 102 | 52 | 1.0 | 4.0 | 0.00 | 0.00 | 0.00 | 37 | 1011.6 |
| 20260906192443 | 103 | 58 | 1.0 | 3.0 | 0.00 | 0.00 | 0.00 | 37 | 1011.6 |
| 20260906191945 | 102 | 281 | 1.0 | 5.0 | 0.00 | 0.00 | 0.00 | 38 | 1011.7 |
| 20260906191503 | 102 | 124 | 0.0 | 5.0 | 0.00 | 0.00 | 0.00 | 36 | 1009.7 |
| 20260906191434 | 103 | 337 | 1.0 | 5.0 | 0.00 | 0.00 | 0.00 | 37 | 1011.7 |
| 20260906190923 | 102 | 164 | 1.0 | 4.0 | 0.00 | 0.00 | 0.00 | 39 | 1011.8 |
| 20260906190434 | 103 | 188 | 1.0 | 4.0 | 0.00 | 0.00 | 0.00 | 38 | 1011.9 |
| 20260906185934 | 103 | 25 | 1.0 | 4.0 | 0.00 | 0.00 | 0.00 | 37 | 1012.0 |
| 20260906185424 | 103 | 217 | 1.0 | 4.0 | 0.00 | 0.00 | 0.00 | 39 | 1012.0 |
| 20260906184927 | 102 | 60 | 1.0 | 6.0 | 0.00 | 0.00 | 0.00 | 39 | 1012.1 |
| 20260906184612 | 101 | 153 | 1.0 | 6.0 | 0.00 | 0.00 | 0.00 | 39 | 1010.1 |
| 20260906184428 | 102 | 155 | 1.0 | 6.0 | 0.00 | 0.00 | 0.00 | 40 | 1012.2 |
| 20260906183939 | 100 | 164 | 1.0 | 4.0 | 0.00 | 0.00 | 0.00 | 41 | 1012.3 |
| 20260906183431 | 101 | 60 | 1.0 | 4.0 | 0.00 | 0.00 | 0.00 | 40 | 1012.3 |
| 20260906183059 | 101 | 16 | 0.0 | 3.0 | 0.00 | 0.00 | 0.00 | 39 | 1010.4 |
| 20260906183001 | 101 | 55 | 0.0 | 3.0 | 0.00 | 0.00 | 0.00 | 40 | 1012.5 |
| 20260906182509 | 101 | 78 | 1.0 | 6.0 | 0.00 | 0.00 | 0.00 | 40 | 1012.5 |
| 20260906181931 | 101 | 53 | 2.0 | 6.0 | 0.00 | 0.00 | 0.00 | 41 | 1012.5 |
| 20260906181532 | 102 | 56 | 1.0 | 4.0 | 0.00 | 0.00 | 0.00 | 40 | 1010.5 |
| 20260906181443 | 102 | 41 | 1.0 | 4.0 | 0.00 | 0.00 | 0.00 | 40 | 1012.6 |
| 20260906180949 | 102 | 212 | 1.0 | 4.0 | 0.00 | 0.00 | 0.00 | 40 | 1012.5 |
| 20260906180430 | 101 | 252 | 1.0 | 3.0 | 0.00 | 0.00 | 0.00 | 41 | 1012.5 |
| 20260906180112 | 100 | 31 | 0.0 | 5.0 | 0.00 | 0.00 | 0.00 | 40 | 1010.6 |
| 20260906180009 | 100 | 39 | 1.0 | 7.0 | 0.00 | 0.00 | 0.00 | 40 | 1012.6 |
| 20260906175429 | 101 | 32 | 0.0 | 7.0 | 0.00 | 0.00 | 0.00 | 40 | 1012.8 |
| 20260906174940 | 101 | 141 | 3.0 | 5.0 | 0.00 | 0.00 | 0.00 | 39 | 1012.8 |
| 20260906174556 | 99 | 269 | 1.0 | 5.0 | 0.00 | 0.00 | 0.00 | 40 | 1010.9 |
| 20260906174438 | 100 | 62 | 2.0 | 5.0 | 0.00 | 0.00 | 0.00 | 41 | 1013.0 |
| 20260906173928 | 101 | 58 | 1.0 | 8.0 | 0.00 | 0.00 | 0.00 | 39 | 1013.1 |
| 20260906173439 | 101 | 29 | 1.0 | 7.0 | 0.00 | 0.00 | 0.00 | 39 | 1013.1 |
| 20260906173116 | 100 | 146 | 3.0 | 7.0 | 0.00 | 0.00 | 0.00 | 40 | 1011.1 |
| 20260906172942 | 100 | 215 | 3.0 | 7.0 | 0.00 | 0.00 | 0.00 | 40 | 1013.3 |
| 20260906172430 | 99 | 35 | 1.0 | 4.0 | 0.00 | 0.00 | 0.00 | 42 | 1013.4 |
| 20260906171940 | 99 | 72 | 1.0 | 4.0 | 0.00 | 0.00 | 0.00 | 42 | 1013.4 |
| 20260906171547 | 99 | 60 | 1.0 | 5.0 | 0.00 | 0.00 | 0.00 | 43 | 1011.5 |
| 20260906171451 | 99 | 101 | 1.0 | 5.0 | 0.00 | 0.00 | 0.00 | 45 | 1013.4 |
| 20260906170932 | 99 | 84 | 1.0 | 4.0 | 0.00 | 0.00 | 0.00 | 45 | 1013.5 |
| 20260906170443 | 99 | 39 | 1.0 | 4.0 | 0.00 | 0.00 | 0.00 | 45 | 1013.5 |
| 20260906170052 | 98 | 104 | 1.0 | 4.0 | 0.00 | 0.00 | 0.00 | 46 | 1011.6 |
| 20260906165952 | 98 | 71 | 1.0 | 4.0 | 0.00 | 0.00 | 0.00 | 45 | 1013.7 |
| 20260906165502 | 98 | 162 | 1.0 | 3.0 | 0.00 | 0.00 | 0.00 | 46 | 1013.7 |
| 20260906164924 | 98 | 56 | 0.0 | 5.0 | 0.00 | 0.00 | 0.00 | 46 | 1013.9 |
| 20260906164523 | 97 | 69 | 0.0 | 5.0 | 0.00 | 0.00 | 0.00 | 48 | 1011.9 |
| 20260906164454 | 97 | 70 | 0.0 | 5.0 | 0.00 | 0.00 | 0.00 | 48 | 1013.9 |
| 20260906163925 | 97 | 57 | 1.0 | 3.0 | 0.00 | 0.00 | 0.00 | 47 | 1013.9 |
| 20260906163452 | 98 | 69 | 1.0 | 3.0 | 0.00 | 0.00 | 0.00 | 47 | 1013.9 |
| 20260906163050 | 97 | 56 | 0.0 | 4.0 | 0.00 | 0.00 | 0.00 | 46 | 1011.9 |
| 20260906162945 | 98 | 271 | 0.0 | 4.0 | 0.00 | 0.00 | 0.00 | 47 | 1014.0 |
| 20260906162423 | 98 | 30 | 1.0 | 4.0 | 0.00 | 0.00 | 0.00 | 48 | 1014.1 |
| 20260906161934 | 97 | 280 | 1.0 | 3.0 | 0.00 | 0.00 | 0.00 | 48 | 1014.1 |
| 20260906161551 | 96 | 42 | 0.0 | 3.0 | 0.00 | 0.00 | 0.00 | 50 | 1012.0 |
| 20260906161435 | 97 | 24 | 0.0 | 2.0 | 0.00 | 0.00 | 0.00 | 48 | 1014.0 |
| 20260906160926 | 97 | 357 | 0.0 | 2.0 | 0.00 | 0.00 | 0.00 | 49 | 1014.0 |
| 20260906160438 | 96 | 51 | 0.0 | 2.0 | 0.00 | 0.00 | 0.00 | 50 | 1014.1 |
| 20260906155940 | 95 | 58 | 1.0 | 3.0 | 0.00 | 0.00 | 0.00 | 50 | 1014.0 |
| 20260906155429 | 95 | 62 | 1.0 | 3.0 | 0.00 | 0.00 | 0.00 | 51 | 1014.0 |
| 20260906154940 | 94 | 56 | 1.0 | 4.0 | 0.00 | 0.00 | 0.00 | 51 | 1014.0 |
| 20260906154502 | 94 | 323 | 1.0 | 4.0 | 0.00 | 0.00 | 0.00 | 52 | 1011.9 |
| 20260906154421 | 94 | 56 | 2.0 | 4.0 | 0.00 | 0.00 | 0.00 | 53 | 1013.9 |
| 20260906153932 | 94 | 50 | 0.0 | 2.0 | 0.00 | 0.00 | 0.00 | 55 | 1013.9 |
| 20260906153444 | 93 | 49 | 1.0 | 2.0 | 0.00 | 0.00 | 0.00 | 55 | 1014.0 |
| 20260906153050 | 92 | 50 | 0.0 | 4.0 | 0.00 | 0.00 | 0.00 | 56 | 1011.9 |
| 20260906152922 | 93 | 44 | 0.0 | 4.0 | 0.00 | 0.00 | 0.00 | 55 | 1014.0 |
| 20260906152434 | 93 | 51 | 2.0 | 4.0 | 0.00 | 0.00 | 0.00 | 56 | 1014.0 |
| 20260906151944 | 93 | 349 | 1.0 | 2.0 | 0.00 | 0.00 | 0.00 | 56 | 1013.8 |
| 20260906151556 | 91 | 36 | 0.0 | 1.0 | 0.00 | 0.00 | 0.00 | 57 | 1011.9 |
| 20260906151425 | 92 | 42 | 0.0 | 2.0 | 0.00 | 0.00 | 0.00 | 57 | 1013.9 |
| 20260906150937 | 91 | 51 | 0.0 | 2.0 | 0.00 | 0.00 | 0.00 | 58 | 1013.9 |
| 20260906150444 | 91 | 45 | 1.0 | 2.0 | 0.00 | 0.00 | 0.00 | 58 | 1013.9 |
| 20260906150111 | 90 | 31 | 0.0 | 2.0 | 0.00 | 0.00 | 0.00 | 59 | 1011.8 |
| 20260906145925 | 90 | 73 | 0.0 | 2.0 | 0.00 | 0.00 | 0.00 | 59 | 1013.8 |
| 20260906145436 | 90 | 122 | 0.0 | 1.0 | 0.00 | 0.00 | 0.00 | 59 | 1013.9 |
| 20260906144948 | 90 | 150 | 0.0 | 1.0 | 0.00 | 0.00 | 0.00 | 60 | 1013.9 |
| 20260906144511 | 89 | 54 | 0.0 | 1.0 | 0.00 | 0.00 | 0.00 | 60 | 1011.9 |
| 20260906144449 | 90 | 54 | 0.0 | 1.0 | 0.00 | 0.00 | 0.00 | 60 | 1013.9 |
| 20260906143940 | 89 | 296 | 0.0 | 1.0 | 0.00 | 0.00 | 0.00 | 60 | 1013.9 |
| 20260906143433 | 89 | 299 | 0.0 | 1.0 | 0.00 | 0.00 | 0.00 | 62 | 1013.9 |
| 20260906143059 | 88 | 41 | 0.0 | 1.0 | 0.00 | 0.00 | 0.00 | 62 | 1011.9 |
| 20260906142930 | 88 | 41 | 0.0 | 0.0 | 0.00 | 0.00 | 0.00 | 63 | 1014.0 |
| 20260906142441 | 88 | 42 | 0.0 | 1.0 | 0.00 | 0.00 | 0.00 | 63 | 1013.9 |
| 20260906141931 | 87 | 44 | 0.0 | 1.0 | 0.00 | 0.00 | 0.00 | 64 | 1014.0 |
| 20260906141543 | 86 | 44 | 0.0 | 1.0 | 0.00 | 0.00 | 0.00 | 64 | 1012.0 |
| 20260906141444 | 87 | 44 | 0.0 | 1.0 | 0.00 | 0.00 | 0.00 | 64 | 1014.0 |
| 20260906140923 | 86 | 56 | 0.0 | 1.0 | 0.00 | 0.00 | 0.00 | 64 | 1014.1 |
| 20260906140435 | 86 | 56 | 0.0 | 1.0 | 0.00 | 0.00 | 0.00 | 65 | 1014.0 |
| 20260906140053 | 85 | 56 | 0.0 | 1.0 | 0.00 | 0.00 | 0.00 | 66 | 1012.1 |
| 20260906135947 | 86 | 56 | 0.0 | 1.0 | 0.00 | 0.00 | 0.00 | 65 | 1014.1 |
| 20260906135447 | 85 | 56 | 0.0 | 1.0 | 0.00 | 0.00 | 0.00 | 66 | 1014.1 |
| 20260906134936 | 85 | 56 | 0.0 | 1.0 | 0.00 | 0.00 | 0.00 | 67 | 1014.1 |
| 20260906134535 | 84 | 56 | 0.0 | 1.0 | 0.00 | 0.00 | 0.00 | 67 | 1012.2 |
| 20260906134444 | 84 | 56 | 0.0 | 0.0 | 0.00 | 0.00 | 0.00 | 67 | 1014.1 |
| 20260906133925 | 84 | 56 | 0.0 | 0.0 | 0.00 | 0.00 | 0.00 | 68 | 1014.0 |
| 20260906133437 | 84 | 56 | 0.0 | 0.0 | 0.00 | 0.00 | 0.00 | 69 | 1014.0 |
| 20260906133049 | 83 | 56 | 0.0 | 0.0 | 0.00 | 0.00 | 0.00 | 70 | 1012.0 |
| 20260906132949 | 83 | 56 | 0.0 | 0.0 | 0.00 | 0.00 | 0.00 | 70 | 1014.0 |
| 20260906132430 | 83 | 56 | 0.0 | 0.0 | 0.00 | 0.00 | 0.00 | 70 | 1014.0 |
| 20260906131941 | 83 | 56 | 0.0 | 1.0 | 0.00 | 0.00 | 0.00 | 69 | 1013.9 |
| 20260906131549 | 82 | 56 | 0.0 | 1.0 | 0.00 | 0.00 | 0.00 | 69 | 1012.0 |
| 20260906131421 | 83 | 56 | 0.0 | 1.0 | 0.00 | 0.00 | 0.00 | 69 | 1013.9 |
| 20260906130952 | 83 | 56 | 0.0 | 1.0 | 0.00 | 0.00 | 0.00 | 69 | 1013.9 |
| 20260906130443 | 83 | 56 | 0.0 | 2.0 | 0.00 | 0.00 | 0.00 | 69 | 1013.9 |
| 20260906130035 | 82 | 55 | 0.0 | 2.0 | 0.00 | 0.00 | 0.00 | 69 | 1011.8 |
| 20260906125952 | 83 | 55 | 0.0 | 2.0 | 0.00 | 0.00 | 0.00 | 69 | 1013.7 |
| 20260906125442 | 82 | 53 | 1.0 | 3.0 | 0.00 | 0.00 | 0.00 | 69 | 1013.6 |
| 20260906124924 | 82 | 53 | 1.0 | 3.0 | 0.00 | 0.00 | 0.00 | 69 | 1013.6 |
| 20260906124521 | 82 | 68 | 1.0 | 3.0 | 0.00 | 0.00 | 0.00 | 69 | 1011.6 |
| 20260906124435 | 82 | 53 | 1.0 | 3.0 | 0.00 | 0.00 | 0.00 | 69 | 1013.5 |
| 20260906123925 | 82 | 62 | 2.0 | 3.0 | 0.00 | 0.00 | 0.00 | 69 | 1013.5 |
| 20260906123428 | 82 | 56 | 2.0 | 3.0 | 0.00 | 0.00 | 0.00 | 69 | 1013.5 |
| 20260906123010 | 82 | 53 | 1.0 | 3.0 | 0.00 | 0.00 | 0.00 | 69 | 1011.5 |
| 20260906122939 | 82 | 42 | 2.0 | 3.0 | 0.00 | 0.00 | 0.00 | 69 | 1013.4 |
| 20260906122428 | 82 | 52 | 2.0 | 3.0 | 0.00 | 0.00 | 0.00 | 69 | 1013.3 |
| 20260906121926 | 82 | 58 | 2.0 | 3.0 | 0.00 | 0.00 | 0.00 | 69 | 1013.4 |
| 20260906121517 | 81 | 71 | 1.0 | 3.0 | 0.00 | 0.00 | 0.00 | 69 | 1011.4 |
| 20260906121439 | 82 | 61 | 2.0 | 3.0 | 0.00 | 0.00 | 0.00 | 69 | 1013.3 |
| 20260906120949 | 82 | 54 | 2.0 | 3.0 | 0.00 | 0.00 | 0.00 | 70 | 1013.2 |
| 20260906120430 | 82 | 58 | 1.0 | 3.0 | 0.00 | 0.00 | 0.00 | 70 | 1013.1 |
| 20260906120022 | 81 | 55 | 1.0 | 3.0 | 0.00 | 0.00 | 0.00 | 70 | 1011.2 |
| 20260906115939 | 82 | 58 | 1.0 | 3.0 | 0.00 | 0.00 | 0.00 | 70 | 1013.1 |
| 20260906115428 | 82 | 50 | 2.0 | 2.0 | 0.00 | 0.00 | 0.00 | 70 | 1013.0 |
| 20260906115000 | 82 | 55 | 1.0 | 3.0 | 0.00 | 0.00 | 0.00 | 70 | 1013.0 |
| 20260906114551 | 81 | 58 | 1.0 | 3.0 | 0.00 | 0.00 | 0.00 | 69 | 1011.0 |
| 20260906114450 | 82 | 56 | 1.0 | 3.0 | 0.00 | 0.00 | 0.00 | 69 | 1012.9 |
| 20260906113951 | 82 | 58 | 1.0 | 3.0 | 0.00 | 0.00 | 0.00 | 69 | 1012.9 |
| 20260906113449 | 82 | 56 | 2.0 | 3.0 | 0.00 | 0.00 | 0.00 | 69 | 1012.9 |
| 20260906113012 | 82 | 58 | 1.0 | 3.0 | 0.00 | 0.00 | 0.00 | 69 | 1010.9 |
| 20260906112928 | 82 | 59 | 1.0 | 3.0 | 0.00 | 0.00 | 0.00 | 69 | 1012.9 |
| 20260906112440 | 83 | 58 | 2.0 | 3.0 | 0.00 | 0.00 | 0.00 | 68 | 1012.8 |
| 20260906111923 | 83 | 44 | 1.0 | 4.0 | 0.00 | 0.00 | 0.00 | 68 | 1012.8 |
| 20260906111518 | 82 | 60 | 2.0 | 4.0 | 0.00 | 0.00 | 0.00 | 68 | 1010.8 |
| 20260906111432 | 83 | 64 | 2.0 | 4.0 | 0.00 | 0.00 | 0.00 | 68 | 1012.7 |
| 20260906110939 | 83 | 32 | 2.0 | 3.0 | 0.00 | 0.00 | 0.00 | 68 | 1012.7 |
| 20260906110442 | 83 | 58 | 2.0 | 3.0 | 0.00 | 0.00 | 0.00 | 69 | 1012.6 |
| 20260906110025 | 82 | 53 | 1.0 | 2.0 | 0.00 | 0.00 | 0.00 | 69 | 1010.6 |
| 20260906105952 | 82 | 53 | 2.0 | 2.0 | 0.00 | 0.00 | 0.00 | 69 | 1012.6 |
| 20260906105442 | 83 | 56 | 1.0 | 2.0 | 0.00 | 0.00 | 0.00 | 69 | 1012.5 |
| 20260906104924 | 83 | 65 | 1.0 | 3.0 | 0.00 | 0.00 | 0.00 | 68 | 1012.6 |
| 20260906104512 | 82 | 55 | 1.0 | 3.0 | 0.00 | 0.00 | 0.00 | 69 | 1010.6 |
| 20260906104433 | 82 | 60 | 1.0 | 3.0 | 0.00 | 0.00 | 0.00 | 69 | 1012.6 |
| 20260906103945 | 82 | 54 | 2.0 | 3.0 | 0.00 | 0.00 | 0.00 | 69 | 1012.5 |
| 20260906103457 | 82 | 54 | 1.0 | 3.0 | 0.00 | 0.00 | 0.00 | 69 | 1012.5 |
| 20260906103104 | 82 | 64 | 0.0 | 3.0 | 0.00 | 0.00 | 0.00 | 69 | 1010.5 |
| 20260906102938 | 83 | 63 | 1.0 | 3.0 | 0.00 | 0.00 | 0.00 | 69 | 1012.5 |
| 20260906102428 | 83 | 51 | 2.0 | 4.0 | 0.00 | 0.00 | 0.00 | 68 | 1012.5 |
| 20260906101931 | 83 | 60 | 2.0 | 4.0 | 0.00 | 0.00 | 0.00 | 68 | 1012.4 |
| 20260906101611 | 82 | 59 | 1.0 | 3.0 | 0.00 | 0.00 | 0.00 | 68 | 1010.4 |
| 20260906101512 | 83 | 56 | 2.0 | 3.0 | 0.00 | 0.00 | 0.00 | 68 | 1012.4 |
| 20260906100932 | 83 | 49 | 2.0 | 3.0 | 0.00 | 0.00 | 0.00 | 68 | 1012.4 |
| 20260906100443 | 83 | 60 | 2.0 | 3.0 | 0.00 | 0.00 | 0.00 | 68 | 1012.4 |
| 20260906100055 | 82 | 56 | 2.0 | 3.0 | 0.00 | 0.00 | 0.00 | 69 | 1010.4 |
| 20260906095924 | 83 | 58 | 2.0 | 3.0 | 0.00 | 0.00 | 0.00 | 69 | 1012.4 |
| 20260906095451 | 83 | 57 | 2.0 | 3.0 | 0.00 | 0.00 | 0.00 | 68 | 1012.4 |
| 20260906094923 | 83 | 56 | 2.0 | 3.0 | 0.00 | 0.00 | 0.00 | 68 | 1012.3 |
| 20260906094542 | 82 | 56 | 1.0 | 3.0 | 0.00 | 0.00 | 0.00 | 68 | 1010.3 |
| 20260906094453 | 83 | 54 | 2.0 | 3.0 | 0.00 | 0.00 | 0.00 | 68 | 1012.2 |
| 20260906093943 | 83 | 55 | 2.0 | 3.0 | 0.00 | 0.00 | 0.00 | 69 | 1012.1 |
| 20260906093425 | 83 | 56 | 1.0 | 2.0 | 0.00 | 0.00 | 0.00 | 69 | 1012.2 |
| 20260906093027 | 82 | 52 | 1.0 | 2.0 | 0.00 | 0.00 | 0.00 | 69 | 1010.2 |
| 20260906092955 | 82 | 52 | 1.0 | 2.0 | 0.00 | 0.00 | 0.00 | 69 | 1012.2 |
| 20260906092445 | 82 | 52 | 1.0 | 2.0 | 0.00 | 0.00 | 0.00 | 70 | 1012.1 |
| 20260906091927 | 82 | 53 | 2.0 | 2.0 | 0.00 | 0.00 | 0.00 | 70 | 1012.0 |
| 20260906091515 | 81 | 52 | 1.0 | 2.0 | 0.00 | 0.00 | 0.00 | 70 | 1009.9 |
| 20260906091439 | 82 | 54 | 1.0 | 2.0 | 0.00 | 0.00 | 0.00 | 70 | 1011.9 |
| 20260906090948 | 82 | 58 | 0.0 | 3.0 | 0.00 | 0.00 | 0.00 | 70 | 1011.8 |
| 20260906090431 | 82 | 53 | 1.0 | 2.0 | 0.00 | 0.00 | 0.00 | 70 | 1011.8 |
| 20260906090022 | 82 | 55 | 0.0 | 2.0 | 0.00 | 0.00 | 0.00 | 69 | 1009.8 |
| 20260906085943 | 83 | 56 | 1.0 | 2.0 | 0.00 | 0.00 | 0.00 | 69 | 1011.8 |
| 20260906085451 | 83 | 55 | 1.0 | 2.0 | 0.00 | 0.00 | 0.00 | 68 | 1011.8 |
| 20260906084933 | 83 | 64 | 0.0 | 1.0 | 0.00 | 0.00 | 0.00 | 68 | 1011.9 |
| 20260906084506 | 83 | 64 | 0.0 | 1.0 | 0.00 | 0.00 | 0.00 | 68 | 1009.9 |
| 20260906084423 | 83 | 64 | 0.0 | 1.0 | 0.00 | 0.00 | 0.00 | 67 | 1011.9 |
| 20260906083950 | 84 | 70 | 0.0 | 1.0 | 0.00 | 0.00 | 0.00 | 66 | 1011.9 |
| 20260906083440 | 84 | 70 | 0.0 | 1.0 | 0.00 | 0.00 | 0.00 | 65 | 1011.8 |
| 20260906083100 | 83 | 70 | 0.0 | 1.0 | 0.00 | 0.00 | 0.00 | 66 | 1009.8 |
| 20260906082921 | 84 | 70 | 0.0 | 1.0 | 0.00 | 0.00 | 0.00 | 66 | 1011.8 |
| 20260906082432 | 83 | 65 | 0.0 | 2.0 | 0.00 | 0.00 | 0.00 | 67 | 1011.7 |
| 20260906081944 | 83 | 66 | 0.0 | 2.0 | 0.00 | 0.00 | 0.00 | 68 | 1011.7 |
| 20260906081604 | 84 | 66 | 0.0 | 2.0 | 0.00 | 0.00 | 0.00 | 68 | 1009.7 |
| 20260906081423 | 84 | 66 | 0.0 | 1.0 | 0.00 | 0.00 | 0.00 | 66 | 1011.6 |
| 20260906080934 | 85 | 101 | 0.0 | 1.0 | 0.00 | 0.00 | 0.00 | 65 | 1011.6 |
| 20260906080426 | 84 | 9 | 0.0 | 1.0 | 0.00 | 0.00 | 0.00 | 66 | 1011.6 |
| 20260906080052 | 84 | 36 | 0.0 | 1.0 | 0.00 | 0.00 | 0.00 | 66 | 1009.7 |
| 20260906075928 | 84 | 37 | 0.0 | 1.0 | 0.00 | 0.00 | 0.00 | 66 | 1011.7 |
| 20260906075439 | 84 | 35 | 0.0 | 1.0 | 0.00 | 0.00 | 0.00 | 67 | 1011.7 |
| 20260906074928 | 83 | 34 | 0.0 | 1.0 | 0.00 | 0.00 | 0.00 | 68 | 1011.8 |
| 20260906074554 | 82 | 252 | 0.0 | 1.0 | 0.00 | 0.00 | 0.00 | 69 | 1009.8 |
| 20260906074456 | 83 | 252 | 0.0 | 1.0 | 0.00 | 0.00 | 0.00 | 70 | 1011.8 |
| 20260906073936 | 83 | 252 | 0.0 | 1.0 | 0.00 | 0.00 | 0.00 | 71 | 1011.8 |
| 20260906073427 | 83 | 252 | 0.0 | 0.0 | 0.00 | 0.00 | 0.00 | 71 | 1011.8 |
| 20260906073041 | 83 | 252 | 0.0 | 1.0 | 0.00 | 0.00 | 0.00 | 71 | 1009.9 |
| 20260906072939 | 83 | 252 | 0.0 | 1.0 | 0.00 | 0.00 | 0.00 | 71 | 1011.8 |
| 20260906072438 | 83 | 252 | 0.0 | 1.0 | 0.00 | 0.00 | 0.00 | 71 | 1011.9 |
| 20260906071928 | 84 | 252 | 0.0 | 2.0 | 0.00 | 0.00 | 0.00 | 71 | 1011.9 |
| 20260906071544 | 83 | 252 | 0.0 | 2.0 | 0.00 | 0.00 | 0.00 | 70 | 1010.0 |
| 20260906071425 | 84 | 252 | 1.0 | 2.0 | 0.00 | 0.00 | 0.00 | 70 | 1012.0 |
| 20260906070429 | 84 | 252 | 2.0 | 3.0 | 0.00 | 0.00 | 0.00 | 69 | 1012.2 |
| 20260906070055 | 84 | 246 | 2.0 | 3.0 | 0.00 | 0.00 | 0.00 | 69 | 1010.3 |
| 20260906065930 | 84 | 247 | 2.0 | 3.0 | 0.00 | 0.00 | 0.00 | 69 | 1012.2 |
| 20260906065422 | 85 | 238 | 3.0 | 4.0 | 0.00 | 0.00 | 0.00 | 68 | 1012.1 |
| 20260906064935 | 85 | 238 | 3.0 | 4.0 | 0.00 | 0.00 | 0.00 | 67 | 1012.1 |
| 20260906064603 | 85 | 238 | 2.0 | 3.0 | 0.00 | 0.00 | 0.00 | 67 | 1010.2 |
| 20260906064505 | 85 | 240 | 3.0 | 3.0 | 0.00 | 0.00 | 0.00 | 67 | 1012.1 |
| 20260906063925 | 86 | 242 | 3.0 | 3.0 | 0.00 | 0.00 | 0.00 | 66 | 1012.2 |
| 20260906063436 | 86 | 251 | 2.0 | 3.0 | 0.00 | 0.00 | 0.00 | 65 | 1012.1 |
| 20260906063049 | 86 | 251 | 1.0 | 3.0 | 0.00 | 0.00 | 0.00 | 65 | 1010.1 |
| 20260906062947 | 86 | 246 | 2.0 | 3.0 | 0.00 | 0.00 | 0.00 | 65 | 1012.1 |
| 20260906062447 | 86 | 236 | 3.0 | 4.0 | 0.00 | 0.00 | 0.00 | 65 | 1012.2 |
| 20260906061938 | 86 | 236 | 2.0 | 4.0 | 0.00 | 0.00 | 0.00 | 65 | 1012.2 |
| 20260906061534 | 85 | 214 | 2.0 | 4.0 | 0.00 | 0.00 | 0.00 | 66 | 1010.3 |
| 20260906061429 | 86 | 210 | 2.0 | 4.0 | 0.00 | 0.00 | 0.00 | 65 | 1012.3 |
| 20260906060929 | 88 | 259 | 0.0 | 1.0 | 0.00 | 0.00 | 0.00 | 62 | 1012.2 |
| 20260906060502 | 88 | 259 | 0.0 | 0.0 | 0.00 | 0.00 | 0.00 | 61 | 1012.2 |
| 20260906060018 | 88 | 259 | 0.0 | 1.0 | 0.00 | 0.00 | 0.00 | 60 | 1010.1 |
| 20260906055946 | 88 | 259 | 0.0 | 1.0 | 0.00 | 0.00 | 0.00 | 60 | 1012.1 |
| 20260906055436 | 88 | 259 | 0.0 | 0.0 | 0.00 | 0.00 | 0.00 | 61 | 1012.1 |
| 20260906054947 | 88 | 259 | 0.0 | 1.0 | 0.00 | 0.00 | 0.00 | 62 | 1012.1 |
| 20260906054518 | 87 | 259 | 0.0 | 1.0 | 0.00 | 0.00 | 0.00 | 63 | 1010.2 |
| 20260906054429 | 87 | 259 | 0.0 | 1.0 | 0.00 | 0.00 | 0.00 | 63 | 1012.2 |
| 20260906054000 | 87 | 259 | 0.0 | 1.0 | 0.00 | 0.00 | 0.00 | 63 | 1012.2 |
| 20260906053431 | 88 | 259 | 0.0 | 1.0 | 0.00 | 0.00 | 0.00 | 63 | 1012.1 |
| 20260906053056 | 87 | 258 | 0.0 | 1.0 | 0.00 | 0.00 | 0.00 | 62 | 1010.2 |
| 20260906052931 | 88 | 259 | 0.0 | 1.0 | 0.00 | 0.00 | 0.00 | 62 | 1012.1 |
| 20260906052422 | 88 | 257 | 1.0 | 1.0 | 0.00 | 0.00 | 0.00 | 62 | 1012.1 |
| 20260906051923 | 87 | 256 | 0.0 | 1.0 | 0.00 | 0.00 | 0.00 | 63 | 1012.0 |
| 20260906051609 | 87 | 256 | 0.0 | 1.0 | 0.00 | 0.00 | 0.00 | 63 | 1010.0 |
| 20260906051433 | 87 | 256 | 1.0 | 1.0 | 0.00 | 0.00 | 0.00 | 64 | 1012.0 |
| 20260906050944 | 87 | 256 | 1.0 | 1.0 | 0.00 | 0.00 | 0.00 | 64 | 1011.9 |
| 20260906050435 | 87 | 254 | 1.0 | 2.0 | 0.00 | 0.00 | 0.00 | 64 | 1012.0 |
| 20260906050049 | 87 | 234 | 0.0 | 2.0 | 0.00 | 0.00 | 0.00 | 64 | 1010.1 |
| 20260906045946 | 87 | 234 | 1.0 | 2.0 | 0.00 | 0.00 | 0.00 | 64 | 1012.0 |
| 20260906045425 | 88 | 233 | 1.0 | 2.0 | 0.00 | 0.00 | 0.00 | 63 | 1012.0 |
| 20260906044936 | 87 | 231 | 1.0 | 2.0 | 0.00 | 0.00 | 0.00 | 63 | 1012.1 |
| 20260906044555 | 87 | 221 | 1.0 | 2.0 | 0.00 | 0.00 | 0.00 | 63 | 1010.0 |
| 20260906044439 | 87 | 224 | 2.0 | 2.0 | 0.00 | 0.00 | 0.00 | 63 | 1012.0 |
| 20260906043923 | 87 | 221 | 1.0 | 2.0 | 0.00 | 0.00 | 0.00 | 64 | 1011.9 |
| 20260906043435 | 88 | 240 | 2.0 | 4.0 | 0.00 | 0.00 | 0.00 | 64 | 1012.0 |
| 20260906043042 | 87 | 238 | 2.0 | 4.0 | 0.00 | 0.00 | 0.00 | 63 | 1010.0 |
| 20260906042946 | 88 | 236 | 2.0 | 4.0 | 0.00 | 0.00 | 0.00 | 63 | 1012.0 |
| 20260906042427 | 88 | 217 | 2.0 | 4.0 | 0.00 | 0.00 | 0.00 | 63 | 1012.0 |
| 20260906042000 | 88 | 209 | 3.0 | 4.0 | 0.00 | 0.00 | 0.00 | 64 | 1011.9 |
| 20260906041527 | 87 | 214 | 2.0 | 4.0 | 0.00 | 0.00 | 0.00 | 64 | 1010.0 |
| 20260906041429 | 88 | 219 | 2.0 | 3.0 | 0.00 | 0.00 | 0.00 | 64 | 1011.9 |
| 20260906040932 | 88 | 218 | 2.0 | 4.0 | 0.00 | 0.00 | 0.00 | 64 | 1012.0 |
| 20260906040441 | 88 | 236 | 2.0 | 4.0 | 0.00 | 0.00 | 0.00 | 64 | 1012.0 |
| 20260906040034 | 88 | 229 | 2.0 | 4.0 | 0.00 | 0.00 | 0.00 | 63 | 1010.1 |
| 20260906035932 | 88 | 191 | 3.0 | 4.0 | 0.00 | 0.00 | 0.00 | 63 | 1012.0 |
| 20260906035434 | 88 | 210 | 2.0 | 4.0 | 0.00 | 0.00 | 0.00 | 63 | 1012.1 |
| 20260906034924 | 88 | 198 | 3.0 | 5.0 | 0.00 | 0.00 | 0.00 | 63 | 1012.0 |
| 20260906034540 | 88 | 176 | 2.0 | 6.0 | 0.00 | 0.00 | 0.00 | 63 | 1010.1 |
| 20260906034435 | 88 | 193 | 3.0 | 6.0 | 0.00 | 0.00 | 0.00 | 63 | 1012.2 |
| 20260906033935 | 89 | 228 | 3.0 | 6.0 | 0.00 | 0.00 | 0.00 | 63 | 1012.2 |
| 20260906033436 | 89 | 207 | 2.0 | 6.0 | 0.00 | 0.00 | 0.00 | 63 | 1012.3 |
| 20260906033055 | 88 | 178 | 2.0 | 6.0 | 0.00 | 0.00 | 0.00 | 63 | 1010.2 |
| 20260906032936 | 88 | 184 | 3.0 | 6.0 | 0.00 | 0.00 | 0.00 | 63 | 1012.2 |
| 20260906032428 | 88 | 180 | 2.0 | 4.0 | 0.00 | 0.00 | 0.00 | 63 | 1012.2 |
| 20260906031939 | 88 | 149 | 2.0 | 5.0 | 0.00 | 0.00 | 0.00 | 63 | 1012.2 |
| 20260906031604 | 88 | 180 | 2.0 | 5.0 | 0.00 | 0.00 | 0.00 | 63 | 1010.3 |
| 20260906031442 | 89 | 204 | 2.0 | 5.0 | 0.00 | 0.00 | 0.00 | 63 | 1012.2 |
| 20260906030931 | 89 | 188 | 3.0 | 5.0 | 0.00 | 0.00 | 0.00 | 62 | 1012.3 |
| 20260906030429 | 89 | 169 | 3.0 | 5.0 | 0.00 | 0.00 | 0.00 | 62 | 1012.4 |
| 20260906030005 | 88 | 216 | 3.0 | 5.0 | 0.00 | 0.00 | 0.00 | 62 | 1010.4 |
| 20260906025941 | 89 | 205 | 3.0 | 5.0 | 0.00 | 0.00 | 0.00 | 62 | 1012.4 |
| 20260906025430 | 89 | 181 | 2.0 | 5.0 | 0.00 | 0.00 | 0.00 | 62 | 1012.3 |
| 20260906024941 | 89 | 166 | 2.0 | 5.0 | 0.00 | 0.00 | 0.00 | 62 | 1012.3 |
| 20260906024553 | 88 | 202 | 2.0 | 4.0 | 0.00 | 0.00 | 0.00 | 62 | 1010.2 |
| 20260906024451 | 89 | 193 | 3.0 | 4.0 | 0.00 | 0.00 | 0.00 | 61 | 1012.2 |
| 20260906023939 | 89 | 178 | 3.0 | 4.0 | 0.00 | 0.00 | 0.00 | 61 | 1012.2 |
| 20260906023442 | 89 | 205 | 2.0 | 5.0 | 0.00 | 0.00 | 0.00 | 61 | 1012.2 |
| 20260906023018 | 88 | 269 | 3.0 | 5.0 | 0.00 | 0.00 | 0.00 | 61 | 1010.1 |
| 20260906022952 | 89 | 200 | 3.0 | 5.0 | 0.00 | 0.00 | 0.00 | 60 | 1012.1 |
| 20260906022422 | 89 | 242 | 3.0 | 5.0 | 0.00 | 0.00 | 0.00 | 60 | 1012.1 |
| 20260906021932 | 89 | 257 | 2.0 | 5.0 | 0.00 | 0.00 | 0.00 | 59 | 1012.1 |
| 20260906021547 | 89 | 236 | 2.0 | 5.0 | 0.00 | 0.00 | 0.00 | 59 | 1010.0 |
| 20260906020933 | 90 | 209 | 2.0 | 6.0 | 0.00 | 0.00 | 0.00 | 58 | 1011.8 |
| 20260906020445 | 90 | 250 | 3.0 | 7.0 | 0.00 | 0.00 | 0.00 | 57 | 1011.9 |
| 20260906020002 | 90 | 228 | 2.0 | 6.0 | 0.00 | 0.00 | 0.00 | 56 | 1009.9 |
| 20260906015926 | 91 | 231 | 3.0 | 6.0 | 0.00 | 0.00 | 0.00 | 56 | 1011.9 |
| 20260906015433 | 91 | 213 | 2.0 | 4.0 | 0.00 | 0.00 | 0.00 | 55 | 1011.9 |
| 20260906015004 | 91 | 226 | 1.0 | 3.0 | 0.00 | 0.00 | 0.00 | 55 | 1011.8 |
| 20260906014554 | 91 | 226 | 1.0 | 3.0 | 0.00 | 0.00 | 0.00 | 54 | 1009.8 |
| 20260906014423 | 91 | 240 | 2.0 | 3.0 | 0.00 | 0.00 | 0.00 | 54 | 1011.8 |
| 20260906013935 | 91 | 205 | 2.0 | 3.0 | 0.00 | 0.00 | 0.00 | 54 | 1011.7 |
| 20260906013448 | 92 | 181 | 1.0 | 3.0 | 0.00 | 0.00 | 0.00 | 54 | 1011.7 |
| 20260906013100 | 91 | 230 | 2.0 | 3.0 | 0.00 | 0.00 | 0.00 | 54 | 1009.7 |
| 20260906012928 | 92 | 218 | 2.0 | 3.0 | 0.00 | 0.00 | 0.00 | 53 | 1011.7 |
| 20260906012439 | 92 | 232 | 2.0 | 3.0 | 0.00 | 0.00 | 0.00 | 53 | 1011.5 |
| 20260906011922 | 92 | 214 | 1.0 | 2.0 | 0.00 | 0.00 | 0.00 | 53 | 1011.4 |
| 20260906011505 | 91 | 233 | 0.0 | 2.0 | 0.00 | 0.00 | 0.00 | 53 | 1009.4 |
| 20260906011433 | 92 | 236 | 1.0 | 2.0 | 0.00 | 0.00 | 0.00 | 53 | 1011.3 |
| 20260906010944 | 92 | 233 | 1.0 | 2.0 | 0.00 | 0.00 | 0.00 | 52 | 1011.3 |
| 20260906010436 | 92 | 177 | 1.0 | 2.0 | 0.00 | 0.00 | 0.00 | 52 | 1011.3 |
| 20260906010055 | 92 | 177 | 1.0 | 2.0 | 0.00 | 0.00 | 0.00 | 52 | 1009.3 |
| 20260906005936 | 93 | 173 | 2.0 | 2.0 | 0.00 | 0.00 | 0.00 | 52 | 1011.3 |
| 20260906005428 | 93 | 223 | 1.0 | 2.0 | 0.00 | 0.00 | 0.00 | 52 | 1011.2 |
| 20260906004939 | 93 | 224 | 0.0 | 2.0 | 0.00 | 0.00 | 0.00 | 51 | 1011.1 |
| 20260906004604 | 93 | 219 | 0.0 | 2.0 | 0.00 | 0.00 | 0.00 | 50 | 1009.1 |
| 20260906004441 | 93 | 203 | 1.0 | 2.0 | 0.00 | 0.00 | 0.00 | 50 | 1011.1 |
| 20260906003939 | 94 | 229 | 1.0 | 2.0 | 0.00 | 0.00 | 0.00 | 49 | 1011.2 |
| 20260906003422 | 94 | 207 | 0.0 | 2.0 | 0.00 | 0.00 | 0.00 | 49 | 1011.1 |
| 20260906003021 | 93 | 166 | 0.0 | 2.0 | 0.00 | 0.00 | 0.00 | 49 | 1009.1 |
| 20260906002948 | 94 | 213 | 0.0 | 2.0 | 0.00 | 0.00 | 0.00 | 49 | 1011.1 |
| 20260906002459 | 94 | 200 | 1.0 | 2.0 | 0.00 | 0.00 | 0.00 | 49 | 1011.1 |
| 20260906001929 | 94 | 240 | 0.0 | 1.0 | 0.00 | 0.00 | 0.00 | 48 | 1011.1 |
| 20260906001546 | 94 | 264 | 0.0 | 3.0 | 0.00 | 0.00 | 0.00 | 48 | 1009.1 |
| 20260906001431 | 95 | 264 | 0.0 | 3.0 | 0.00 | 0.00 | 0.00 | 48 | 1011.0 |
| 20260906000922 | 95 | 268 | 0.0 | 3.0 | 0.00 | 0.00 | 0.00 | 48 | 1011.1 |
| 20260906000455 | 95 | 226 | 0.0 | 1.0 | 0.00 | 0.00 | 0.00 | 47 | 1011.1 |
| 20260906000034 | 95 | 17 | 0.0 | 1.0 | 0.00 | 0.00 | 0.00 | 47 | 1009.2 |
| 20260905235943 | 95 | 25 | 0.0 | 1.0 | 0.00 | 0.00 | 0.00 | 47 | 1011.1 |
| 20260905235454 | 95 | 41 | 0.0 | 1.0 | 0.00 | 0.00 | 0.00 | 47 | 1011.1 |
| 20260905234944 | 96 | 41 | 0.0 | 1.0 | 0.00 | 0.00 | 0.00 | 47 | 1011.1 |
| 20260905234606 | 95 | 43 | 0.0 | 1.0 | 0.00 | 0.00 | 0.00 | 46 | 1009.1 |
| 20260905234425 | 96 | 43 | 0.0 | 1.0 | 0.00 | 0.00 | 0.00 | 46 | 1011.1 |
| 20260905233957 | 96 | 34 | 0.0 | 1.0 | 0.00 | 0.00 | 0.00 | 46 | 1011.1 |
| 20260905233446 | 96 | 27 | 0.0 | 1.0 | 0.00 | 0.00 | 0.00 | 46 | 1011.1 |
| 20260905233029 | 95 | 25 | 0.0 | 2.0 | 0.00 | 0.00 | 0.00 | 46 | 1009.1 |
| 20260905232951 | 96 | 25 | 0.0 | 2.0 | 0.00 | 0.00 | 0.00 | 46 | 1011.0 |
| 20260905232442 | 96 | 60 | 1.0 | 5.0 | 0.00 | 0.00 | 0.00 | 46 | 1011.0 |
| 20260905231924 | 96 | 60 | 0.0 | 5.0 | 0.00 | 0.00 | 0.00 | 45 | 1011.0 |
| 20260905231516 | 96 | 59 | 0.0 | 5.0 | 0.00 | 0.00 | 0.00 | 45 | 1008.9 |
| 20260905231433 | 97 | 314 | 1.0 | 5.0 | 0.00 | 0.00 | 0.00 | 45 | 1010.9 |
| 20260905230925 | 97 | 15 | 0.0 | 4.0 | 0.00 | 0.00 | 0.00 | 44 | 1010.9 |
| 20260905230427 | 97 | 6 | 0.0 | 4.0 | 0.00 | 0.00 | 0.00 | 44 | 1010.9 |
| 20260905230005 | 97 | 162 | 0.0 | 4.0 | 0.00 | 0.00 | 0.00 | 44 | 1008.9 |
| 20260905225938 | 97 | 208 | 1.0 | 3.0 | 0.00 | 0.00 | 0.00 | 44 | 1010.8 |
| 20260905225428 | 97 | 59 | 1.0 | 7.0 | 0.00 | 0.00 | 0.00 | 44 | 1010.7 |
| 20260905224937 | 97 | 43 | 0.0 | 7.0 | 0.00 | 0.00 | 0.00 | 44 | 1010.7 |
| 20260905224554 | 97 | 220 | 0.0 | 4.0 | 0.00 | 0.00 | 0.00 | 44 | 1008.8 |
| 20260905224449 | 97 | 235 | 0.0 | 4.0 | 0.00 | 0.00 | 0.00 | 44 | 1010.7 |
| 20260905223930 | 97 | 59 | 0.0 | 3.0 | 0.00 | 0.00 | 0.00 | 44 | 1010.8 |
| 20260905223442 | 97 | 59 | 1.0 | 2.0 | 0.00 | 0.00 | 0.00 | 44 | 1010.7 |
| 20260905223101 | 97 | 38 | 0.0 | 4.0 | 0.00 | 0.00 | 0.00 | 44 | 1008.7 |
| 20260905222923 | 97 | 351 | 1.0 | 4.0 | 0.00 | 0.00 | 0.00 | 44 | 1010.7 |
| 20260905222435 | 98 | 52 | 1.0 | 4.0 | 0.00 | 0.00 | 0.00 | 43 | 1010.8 |
| 20260905221942 | 98 | 68 | 1.0 | 4.0 | 0.00 | 0.00 | 0.00 | 43 | 1010.8 |
| 20260905221544 | 97 | 34 | 0.0 | 3.0 | 0.00 | 0.00 | 0.00 | 43 | 1008.9 |
| 20260905221448 | 98 | 39 | 0.0 | 3.0 | 0.00 | 0.00 | 0.00 | 43 | 1010.9 |
| 20260905220950 | 98 | 340 | 1.0 | 4.0 | 0.00 | 0.00 | 0.00 | 43 | 1011.0 |
| 20260905220441 | 98 | 58 | 1.0 | 4.0 | 0.00 | 0.00 | 0.00 | 43 | 1011.0 |
| 20260905220029 | 98 | 60 | 0.0 | 5.0 | 0.00 | 0.00 | 0.00 | 44 | 1009.0 |
| 20260905215931 | 98 | 63 | 1.0 | 5.0 | 0.00 | 0.00 | 0.00 | 44 | 1011.0 |
| 20260905215434 | 98 | 68 | 2.0 | 5.0 | 0.00 | 0.00 | 0.00 | 43 | 1011.0 |
| 20260905214924 | 98 | 45 | 1.0 | 4.0 | 0.00 | 0.00 | 0.00 | 44 | 1011.1 |
| 20260905214537 | 97 | 58 | 0.0 | 2.0 | 0.00 | 0.00 | 0.00 | 43 | 1009.1 |
| 20260905214433 | 98 | 59 | 0.0 | 3.0 | 0.00 | 0.00 | 0.00 | 44 | 1011.1 |
| 20260905213935 | 98 | 58 | 1.0 | 3.0 | 0.00 | 0.00 | 0.00 | 43 | 1011.1 |
| 20260905213447 | 99 | 60 | 1.0 | 4.0 | 0.00 | 0.00 | 0.00 | 41 | 1011.1 |
| 20260905213023 | 98 | 53 | 0.0 | 4.0 | 0.00 | 0.00 | 0.00 | 41 | 1009.1 |
| 20260905212936 | 99 | 53 | 1.0 | 4.0 | 0.00 | 0.00 | 0.00 | 41 | 1011.1 |
| 20260905212447 | 100 | 53 | 1.0 | 3.0 | 0.00 | 0.00 | 0.00 | 41 | 1011.1 |
| 20260905211929 | 100 | 62 | 1.0 | 3.0 | 0.00 | 0.00 | 0.00 | 41 | 1011.1 |
| 20260905211615 | 99 | 37 | 0.0 | 1.0 | 0.00 | 0.00 | 0.00 | 41 | 1009.2 |
| 20260905211449 | 100 | 37 | 0.0 | 2.0 | 0.00 | 0.00 | 0.00 | 42 | 1011.2 |
| 20260905210928 | 98 | 18 | 0.0 | 3.0 | 0.00 | 0.00 | 0.00 | 42 | 1011.3 |
| 20260905210434 | 98 | 53 | 0.0 | 6.0 | 0.00 | 0.00 | 0.00 | 41 | 1011.4 |
| 20260905210110 | 98 | 29 | 1.0 | 6.0 | 0.00 | 0.00 | 0.00 | 41 | 1009.4 |
| 20260905205936 | 99 | 75 | 2.0 | 6.0 | 0.00 | 0.00 | 0.00 | 40 | 1011.4 |
| 20260905205424 | 100 | 65 | 2.0 | 6.0 | 0.00 | 0.00 | 0.00 | 39 | 1011.6 |
| 20260905204936 | 100 | 195 | 1.0 | 5.0 | 0.00 | 0.00 | 0.00 | 41 | 1011.5 |
| 20260905204544 | 100 | 159 | 2.0 | 5.0 | 0.00 | 0.00 | 0.00 | 41 | 1009.7 |
| 20260905204447 | 100 | 197 | 2.0 | 5.0 | 0.00 | 0.00 | 0.00 | 41 | 1011.7 |
| 20260905203924 | 100 | 25 | 1.0 | 5.0 | 0.00 | 0.00 | 0.00 | 41 | 1011.7 |
| 20260905203437 | 100 | 227 | 2.0 | 7.0 | 0.00 | 0.00 | 0.00 | 41 | 1011.9 |